Location: *
(60.1759°S, 155.0663°W)
Time: 23:08:07
(UTC+00:00)

USA 229 - Pass Details

Date: 17 September 2019
Orbit: 1003 x 1209 km, 63.5° (Epoch: 08 October)

Event Time Altitude Azimuth Distance (km) Brightness Sun altitude
Rises 12:07:01 0° 244° (WSW) 4,024 6.7 -28.2°
Reaches altitude 10° 12:09:48 10° 244° (WSW) 3,033 6.0 -28.0°
Maximum altitude 12:17:02 87° 331° (NNW) 1,103 3.6 -27.5°
Drops below altitude 10° 12:23:52 10° 59° (ENE) 2,872 6.0 -27.0°
Sets 12:26:25 0° 58° (ENE) 3,799 6.7 -26.8°
